Location: Newark
(34.5992°S, 58.3747°W)
Time: 12:53:11
(UTC+00:00)

STARLINK 1048 - Pass Details

Date: 09 December 2019
Orbit: 348 x 351 km, 53.0° (Epoch: 27 January)

Event Time Altitude Azimuth Distance (km) Brightness Sun altitude
Rises 23:29:27 0° 245° (WSW) 2,182 9.0 -6.3°
Reaches altitude 10° 23:32:05 10° 271° (W) 1,329 6.5 -6.8°
Maximum altitude 23:33:48 14° 306° (NW) 1,097 5.4 -7.1°
Drops below altitude 10° 23:35:31 10° 342° (NNW) 1,318 5.4 -7.4°
Enters shadow 23:37:43 - 5° (N) 2,000 6.1 -7.7°
